contact: severine.martini@mio.osupytheas.fr, dominique.lefevre@mio.osupytheas.fr
Project:EMSO Ligure-ouest http://www.emso-fr.org/EMSO-France
Sensor Microcat Sea-Bird SBE37 SMP,  Serial 57510 
DOI : "https://doi.org/10.17882/97948" 
Title:EMSO Ligure Ouest : Data Bathybot capteur Microcat - deploiement 2023-04-28
Datetime,Profondeur,Latitude,Longitude,Temperature,Conductivite,Pression,Salinite
time,m,degree_north,degree_east,degree_C,S/m,db,PSU 
2023-11-07T00:00:49,2420,42.8014,5.9826,13.2981,4.35359,2453.680,36.1804
2023-11-07T00:03:49,2420,42.8014,5.9826,13.2978,4.35366,2453.717,36.1813
2023-11-07T00:06:49,2420,42.8014,5.9826,13.2978,4.35377,2453.740,36.1822
2023-11-07T00:09:49,2420,42.8014,5.9826,13.2975,4.35411,2453.717,36.1857
2023-11-07T00:12:49,2420,42.8014,5.9826,13.2975,4.35320,2453.702,36.1772
2023-11-07T00:15:49,2420,42.8014,5.9826,13.2978,4.35363,2453.740,36.1810
2023-11-07T00:18:49,2420,42.8014,5.9826,13.2973,4.35228,2453.740,36.1688
2023-11-07T00:21:49,2420,42.8014,5.9826,13.2975,4.35387,2453.717,36.1835
2023-11-07T00:24:49,2420,42.8014,5.9826,13.2975,4.35373,2453.740,36.1822
2023-11-07T00:27:49,2420,42.8014,5.9826,13.2973,4.35268,2453.740,36.1725
2023-11-07T00:30:49,2420,42.8014,5.9826,13.2978,4.35417,2453.717,36.1860
2023-11-07T00:33:49,2420,42.8014,5.9826,13.2976,4.35427,2453.740,36.1871
2023-11-07T00:36:49,2420,42.8014,5.9826,13.2972,4.35375,2453.740,36.1827
2023-11-07T00:39:49,2420,42.8014,5.9826,13.2973,4.35337,2453.717,36.1790
2023-11-07T00:42:49,2420,42.8014,5.9826,13.2980,4.35318,2453.754,36.1765
2023-11-07T00:45:49,2420,42.8014,5.9826,13.2978,4.35278,2453.740,36.1730
2023-11-07T00:48:49,2420,42.8014,5.9826,13.2979,4.35244,2453.740,36.1698
2023-11-07T00:51:49,2420,42.8014,5.9826,13.2978,4.35326,2453.717,36.1775
2023-11-07T00:54:49,2420,42.8014,5.9826,13.2973,4.35286,2453.740,36.1742
2023-11-07T00:57:49,2420,42.8014,5.9826,13.2978,4.35399,2453.740,36.1843
2023-11-07T01:00:49,2420,42.8014,5.9826,13.2980,4.35290,2453.762,36.1739
2023-11-07T01:03:49,2420,42.8014,5.9826,13.2973,4.35136,2453.717,36.1602
2023-11-07T01:06:49,2420,42.8014,5.9826,13.2973,4.35119,2453.762,36.1586
2023-11-07T01:09:49,2420,42.8014,5.9826,13.2979,4.35132,2453.717,36.1593
2023-11-07T01:12:49,2420,42.8014,5.9826,13.2973,4.35115,2453.740,36.1582
2023-11-07T01:15:49,2420,42.8014,5.9826,13.2971,4.35173,2453.740,36.1638
2023-11-07T01:18:49,2420,42.8014,5.9826,13.2976,4.35143,2453.740,36.1605
2023-11-07T01:21:49,2420,42.8014,5.9826,13.2971,4.35163,2453.740,36.1629
2023-11-07T01:24:49,2420,42.8014,5.9826,13.2970,4.35188,2453.754,36.1653
2023-11-07T01:27:49,2420,42.8014,5.9826,13.2975,4.35219,2453.740,36.1677
2023-11-07T01:30:49,2420,42.8014,5.9826,13.2976,4.35190,2453.762,36.1649
2023-11-07T01:33:49,2420,42.8014,5.9826,13.2978,4.35364,2453.717,36.1810
2023-11-07T01:36:49,2420,42.8014,5.9826,13.2978,4.35134,2453.717,36.1596
2023-11-07T01:39:49,2420,42.8014,5.9826,13.2983,4.35300,2453.762,36.1746
2023-11-07T01:42:49,2420,42.8014,5.9826,13.2980,4.35043,2453.762,36.1508
2023-11-07T01:45:49,2420,42.8014,5.9826,13.2980,4.35157,2453.762,36.1615
2023-11-07T01:48:49,2420,42.8014,5.9826,13.2977,4.35166,2453.748,36.1626
2023-11-07T01:51:49,2420,42.8014,5.9826,13.2975,4.35273,2453.740,36.1728
2023-11-07T01:54:49,2420,42.8014,5.9826,13.2982,4.35336,2453.740,36.1781
2023-11-07T01:57:49,2420,42.8014,5.9826,13.2978,4.35185,2453.777,36.1644
2023-11-07T02:00:49,2420,42.8014,5.9826,13.2973,4.35316,2453.717,36.1771
2023-11-07T02:03:49,2420,42.8014,5.9826,13.2973,4.35198,2453.762,36.1660
2023-11-07T02:06:49,2420,42.8014,5.9826,13.2974,4.35198,2453.762,36.1659
2023-11-07T02:09:49,2420,42.8014,5.9826,13.2979,4.35308,2453.748,36.1758
2023-11-07T02:12:49,2420,42.8014,5.9826,13.2979,4.35331,2453.740,36.1779
2023-11-07T02:15:49,2420,42.8014,5.9826,13.2978,4.35120,2453.740,36.1583
2023-11-07T02:18:49,2420,42.8014,5.9826,13.2985,4.35279,2453.748,36.1724
2023-11-07T02:21:49,2420,42.8014,5.9826,13.2977,4.35302,2453.762,36.1753
2023-11-07T02:24:49,2420,42.8014,5.9826,13.2975,4.35360,2453.740,36.1810
2023-11-07T02:27:49,2420,42.8014,5.9826,13.2977,4.35227,2453.762,36.1684
2023-11-07T02:30:49,2420,42.8014,5.9826,13.2978,4.35187,2453.762,36.1645
2023-11-07T02:33:49,2420,42.8014,5.9826,13.2979,4.35177,2453.762,36.1634
2023-11-07T02:36:49,2420,42.8014,5.9826,13.2976,4.35238,2453.740,36.1695
2023-11-07T02:39:49,2420,42.8014,5.9826,13.2976,4.35271,2453.748,36.1726
2023-11-07T02:42:49,2420,42.8014,5.9826,13.2976,4.35281,2453.748,36.1735
2023-11-07T02:45:49,2420,42.8014,5.9826,13.2979,4.35281,2453.762,36.1732
2023-11-07T02:48:49,2420,42.8014,5.9826,13.2981,4.35305,2453.800,36.1752
2023-11-07T02:51:49,2420,42.8014,5.9826,13.2978,4.35204,2453.740,36.1661
2023-11-07T02:54:49,2420,42.8014,5.9826,13.2977,4.35144,2453.762,36.1606
2023-11-07T02:57:49,2420,42.8014,5.9826,13.2977,4.35301,2453.762,36.1753
2023-11-07T03:00:50,2420,42.8014,5.9826,13.2975,4.35334,2453.762,36.1786
2023-11-07T03:03:49,2420,42.8014,5.9826,13.2977,4.35299,2453.785,36.1750
2023-11-07T03:06:49,2420,42.8014,5.9826,13.2975,4.35292,2453.740,36.1747
2023-11-07T03:09:49,2420,42.8014,5.9826,13.2975,4.35291,2453.717,36.1745
2023-11-07T03:12:49,2420,42.8014,5.9826,13.2976,4.35237,2453.762,36.1693
2023-11-07T03:15:49,2420,42.8014,5.9826,13.2974,4.35344,2453.740,36.1795
2023-11-07T03:18:49,2420,42.8014,5.9826,13.2975,4.35349,2453.748,36.1799
2023-11-07T03:21:49,2420,42.8014,5.9826,13.2973,4.35260,2453.762,36.1717
2023-11-07T03:24:49,2420,42.8014,5.9826,13.2974,4.35237,2453.762,36.1696
2023-11-07T03:27:49,2420,42.8014,5.9826,13.2974,4.35289,2453.762,36.1744
2023-11-07T03:30:49,2420,42.8014,5.9826,13.2973,4.35317,2453.740,36.1771
2023-11-07T03:33:49,2420,42.8014,5.9826,13.2975,4.35325,2453.740,36.1777
2023-11-07T03:36:49,2420,42.8014,5.9826,13.2976,4.35225,2453.762,36.1682
2023-11-07T03:39:49,2420,42.8014,5.9826,13.2978,4.35354,2453.717,36.1801
2023-11-07T03:42:49,2420,42.8014,5.9826,13.2978,4.35242,2453.740,36.1696
2023-11-07T03:45:49,2420,42.8014,5.9826,13.2981,4.35308,2453.740,36.1756
2023-11-07T03:48:49,2420,42.8014,5.9826,13.2976,4.35306,2453.740,36.1758
2023-11-07T03:51:49,2420,42.8014,5.9826,13.2972,4.35149,2453.762,36.1615
2023-11-07T03:54:49,2420,42.8014,5.9826,13.2979,4.35200,2453.717,36.1656
2023-11-07T03:57:49,2420,42.8014,5.9826,13.2974,4.35247,2453.740,36.1705
2023-11-07T04:00:50,2420,42.8014,5.9826,13.2975,4.35252,2453.740,36.1708
2023-11-07T04:03:49,2420,42.8014,5.9826,13.2977,4.35180,2453.740,36.1639
2023-11-07T04:06:49,2420,42.8014,5.9826,13.2975,4.35325,2453.748,36.1777
2023-11-07T04:09:49,2420,42.8014,5.9826,13.2976,4.35206,2453.762,36.1665
2023-11-07T04:12:49,2420,42.8014,5.9826,13.2975,4.35306,2453.740,36.1759
2023-11-07T04:15:49,2420,42.8014,5.9826,13.2977,4.35231,2453.762,36.1687
2023-11-07T04:18:49,2420,42.8014,5.9826,13.2979,4.35203,2453.740,36.1660
2023-11-07T04:21:49,2420,42.8014,5.9826,13.2979,4.35250,2453.740,36.1703
2023-11-07T04:24:49,2420,42.8014,5.9826,13.2975,4.35227,2453.740,36.1686
2023-11-07T04:27:49,2420,42.8014,5.9826,13.2975,4.35255,2453.740,36.1712
2023-11-07T04:30:49,2420,42.8014,5.9826,13.2974,4.35196,2453.717,36.1657
2023-11-07T04:33:49,2420,42.8014,5.9826,13.2975,4.35193,2453.762,36.1654
2023-11-07T04:36:49,2420,42.8014,5.9826,13.2978,4.35247,2453.740,36.1701
2023-11-07T04:39:49,2420,42.8014,5.9826,13.2978,4.35293,2453.725,36.1744
2023-11-07T04:42:49,2420,42.8014,5.9826,13.2973,4.35251,2453.740,36.1710
2023-11-07T04:45:49,2420,42.8014,5.9826,13.2974,4.35338,2453.754,36.1790
2023-11-07T04:48:49,2420,42.8014,5.9826,13.2979,4.35207,2453.785,36.1663
2023-11-07T04:51:49,2420,42.8014,5.9826,13.2976,4.35307,2453.748,36.1759
2023-11-07T04:54:49,2420,42.8014,5.9826,13.2978,4.35250,2453.740,36.1704
2023-11-07T04:57:49,2420,42.8014,5.9826,13.2978,4.35302,2453.762,36.1753
2023-11-07T05:00:49,2420,42.8014,5.9826,13.2974,4.35278,2453.762,36.1734
2023-11-07T05:03:49,2420,42.8014,5.9826,13.2979,4.35312,2453.740,36.1760
2023-11-07T05:06:49,2420,42.8014,5.9826,13.2978,4.35280,2453.740,36.1732
2023-11-07T05:09:49,2420,42.8014,5.9826,13.2975,4.35263,2453.762,36.1720
2023-11-07T05:12:49,2420,42.8014,5.9826,13.2980,4.35314,2453.762,36.1762
2023-11-07T05:15:49,2420,42.8014,5.9826,13.2978,4.35268,2453.762,36.1720
2023-11-07T05:18:49,2420,42.8014,5.9826,13.2979,4.35290,2453.740,36.1741
2023-11-07T05:21:49,2420,42.8014,5.9826,13.2979,4.35163,2453.740,36.1622
2023-11-07T05:24:49,2420,42.8014,5.9826,13.2978,4.35264,2453.762,36.1717
2023-11-07T05:27:49,2420,42.8014,5.9826,13.2975,4.35229,2453.740,36.1687
2023-11-07T05:30:49,2420,42.8014,5.9826,13.2974,4.35266,2453.740,36.1722
2023-11-07T05:33:49,2420,42.8014,5.9826,13.2976,4.35325,2453.717,36.1776
2023-11-07T05:36:49,2420,42.8014,5.9826,13.2978,4.35200,2453.740,36.1658
2023-11-07T05:39:49,2420,42.8014,5.9826,13.2973,4.35239,2453.762,36.1698
2023-11-07T05:42:49,2420,42.8014,5.9826,13.2974,4.35223,2453.762,36.1682
2023-11-07T05:45:49,2420,42.8014,5.9826,13.2992,4.35191,2453.762,36.1636
2023-11-07T05:48:49,2420,42.8014,5.9826,13.2986,4.35136,2453.717,36.1590
2023-11-07T05:51:49,2420,42.8014,5.9826,13.2982,4.35237,2453.725,36.1689
2023-11-07T05:54:49,2420,42.8014,5.9826,13.2988,4.35248,2453.740,36.1693
2023-11-07T05:57:49,2420,42.8014,5.9826,13.2986,4.35203,2453.717,36.1652
2023-11-07T06:00:49,2420,42.8014,5.9826,13.2991,4.35275,2453.740,36.1715
2023-11-07T06:03:49,2420,42.8014,5.9826,13.2978,4.35253,2453.740,36.1707
2023-11-07T06:06:49,2420,42.8014,5.9826,13.3027,4.35274,2453.725,36.1681
2023-11-07T06:09:49,2420,42.8014,5.9826,13.3002,4.35259,2453.717,36.1690
2023-11-07T06:12:49,2420,42.8014,5.9826,13.2984,4.35229,2453.740,36.1679
2023-11-07T06:15:49,2420,42.8014,5.9826,13.2985,4.35240,2453.740,36.1688
2023-11-07T06:18:49,2420,42.8014,5.9826,13.2989,4.35153,2453.717,36.1603
2023-11-07T06:21:49,2420,42.8014,5.9826,13.2982,4.35209,2453.740,36.1662
2023-11-07T06:24:49,2420,42.8014,5.9826,13.2984,4.35274,2453.717,36.1721
2023-11-07T06:27:49,2420,42.8014,5.9826,13.2981,4.35237,2453.740,36.1689
2023-11-07T06:30:49,2420,42.8014,5.9826,13.2994,4.35180,2453.740,36.1623
2023-11-07T06:33:49,2420,42.8014,5.9826,13.3135,4.35194,2453.717,36.1505
2023-11-07T06:36:49,2420,42.8014,5.9826,13.3015,4.35234,2453.740,36.1655
2023-11-07T06:39:50,2420,42.8014,5.9826,13.2985,4.35276,2453.740,36.1722
2023-11-07T06:42:49,2420,42.8014,5.9826,13.2979,4.35259,2453.740,36.1711
2023-11-07T06:45:49,2420,42.8014,5.9826,13.2975,4.35231,2453.740,36.1689
2023-11-07T06:48:49,2420,42.8014,5.9826,13.2979,4.35211,2453.717,36.1666
2023-11-07T06:51:49,2420,42.8014,5.9826,13.2987,4.35141,2453.740,36.1593
2023-11-07T06:54:49,2420,42.8014,5.9826,13.2998,4.35185,2453.695,36.1625
2023-11-07T06:57:49,2420,42.8014,5.9826,13.3014,4.35239,2453.717,36.1660
2023-11-07T07:00:49,2420,42.8014,5.9826,13.2988,4.35235,2453.754,36.1680
2023-11-07T07:03:49,2420,42.8014,5.9826,13.2987,4.35158,2453.702,36.1609
2023-11-07T07:06:49,2420,42.8014,5.9826,13.2982,4.35240,2453.740,36.1692
2023-11-07T07:09:49,2420,42.8014,5.9826,13.2979,4.35138,2453.754,36.1598
2023-11-07T07:12:49,2420,42.8014,5.9826,13.2987,4.35140,2453.702,36.1593
2023-11-07T07:15:49,2420,42.8014,5.9826,13.3029,4.35186,2453.777,36.1596
2023-11-07T07:18:49,2420,42.8014,5.9826,13.3021,4.35253,2453.740,36.1666
2023-11-07T07:21:49,2420,42.8014,5.9826,13.3116,4.35263,2453.717,36.1587
2023-11-07T07:24:50,2420,42.8014,5.9826,13.3016,4.35198,2453.725,36.1620
2023-11-07T07:27:49,2420,42.8014,5.9826,13.3095,4.35223,2453.717,36.1569
2023-11-07T07:30:49,2420,42.8014,5.9826,13.3004,4.35205,2453.717,36.1638
2023-11-07T07:33:49,2420,42.8014,5.9826,13.3056,4.35286,2453.717,36.1665
2023-11-07T07:36:49,2420,42.8014,5.9826,13.3132,4.35113,2453.695,36.1432
2023-11-07T07:39:49,2420,42.8014,5.9826,13.3040,4.35189,2453.717,36.1590
2023-11-07T07:42:49,2420,42.8014,5.9826,13.3011,4.35187,2453.717,36.1615
2023-11-07T07:45:49,2420,42.8014,5.9826,13.3006,4.35208,2453.717,36.1639
2023-11-07T07:48:49,2420,42.8014,5.9826,13.3029,4.35188,2453.740,36.1598
2023-11-07T07:51:49,2420,42.8014,5.9826,13.3194,4.35487,2453.740,36.1724
2023-11-07T07:54:49,2420,42.8014,5.9826,13.3069,4.35266,2453.717,36.1635
2023-11-07T07:57:49,2420,42.8014,5.9826,13.3050,4.35196,2453.717,36.1586
2023-11-07T08:00:49,2420,42.8014,5.9826,13.2999,4.35225,2453.740,36.1661
2023-11-07T08:03:49,2420,42.8014,5.9826,13.3026,4.35258,2453.740,36.1667
2023-11-07T08:06:49,2420,42.8014,5.9826,13.3011,4.35226,2453.740,36.1651
2023-11-07T08:09:49,2420,42.8014,5.9826,13.3004,4.35174,2453.717,36.1609
2023-11-07T08:12:49,2420,42.8014,5.9826,13.2983,4.35213,2453.754,36.1664
2023-11-07T08:15:49,2420,42.8014,5.9826,13.2979,4.35244,2453.717,36.1697
2023-11-07T08:18:49,2420,42.8014,5.9826,13.3021,4.35344,2453.717,36.1751
2023-11-07T08:21:49,2420,42.8014,5.9826,13.3049,4.35290,2453.717,36.1675
2023-11-07T08:24:49,2420,42.8014,5.9826,13.2992,4.35215,2453.732,36.1658
2023-11-07T08:27:49,2420,42.8014,5.9826,13.3106,4.35295,2453.740,36.1627
2023-11-07T08:30:49,2420,42.8014,5.9826,13.3049,4.35259,2453.732,36.1647
2023-11-07T08:33:49,2420,42.8014,5.9826,13.3016,4.35256,2453.740,36.1674
2023-11-07T08:36:49,2420,42.8014,5.9826,13.3009,4.35268,2453.717,36.1692
2023-11-07T08:39:49,2420,42.8014,5.9826,13.3012,4.35176,2453.740,36.1603
2023-11-07T08:42:49,2420,42.8014,5.9826,13.3004,4.35133,2453.732,36.1570
2023-11-07T08:45:49,2420,42.8014,5.9826,13.3032,4.35183,2453.740,36.1591
2023-11-07T08:48:49,2420,42.8014,5.9826,13.3329,4.35266,2453.717,36.1392
2023-11-07T08:51:49,2420,42.8014,5.9826,13.3002,4.35242,2453.732,36.1673
2023-11-07T08:54:49,2420,42.8014,5.9826,13.3000,4.35216,2453.740,36.1651
2023-11-07T08:57:49,2420,42.8014,5.9826,13.3061,4.35228,2453.754,36.1606
2023-11-07T09:00:49,2420,42.8014,5.9826,13.3041,4.35308,2453.740,36.1700
2023-11-07T09:03:49,2420,42.8014,5.9826,13.3083,4.35271,2453.740,36.1627
2023-11-07T09:06:49,2420,42.8014,5.9826,13.3062,4.35120,2453.740,36.1504
2023-11-07T09:09:49,2420,42.8014,5.9826,13.3123,4.35148,2453.740,36.1474
2023-11-07T09:12:49,2420,42.8014,5.9826,13.3034,4.35225,2453.740,36.1628
2023-11-07T09:15:49,2420,42.8014,5.9826,13.3012,4.35269,2453.740,36.1690
2023-11-07T09:18:50,2420,42.8014,5.9826,13.3039,4.35215,2453.740,36.1615
2023-11-07T09:21:49,2420,42.8014,5.9826,13.3005,4.35266,2453.732,36.1693
2023-11-07T09:24:49,2420,42.8014,5.9826,13.2997,4.35183,2453.717,36.1623
2023-11-07T09:27:49,2420,42.8014,5.9826,13.2997,4.35238,2453.649,36.1675
2023-11-07T09:30:49,2420,42.8014,5.9826,13.3035,4.35216,2453.740,36.1619
2023-11-07T09:33:49,2420,42.8014,5.9826,13.3309,4.35297,2453.740,36.1440
2023-11-07T09:36:49,2420,42.8014,5.9826,13.3304,4.35216,2453.740,36.1369
2023-11-07T09:39:49,2420,42.8014,5.9826,13.3072,4.35343,2453.725,36.1703
2023-11-07T09:42:49,2420,42.8014,5.9826,13.3016,4.35253,2453.754,36.1672
2023-11-07T09:45:49,2420,42.8014,5.9826,13.3007,4.35247,2453.777,36.1674
2023-11-07T09:48:49,2420,42.8014,5.9826,13.3118,4.35323,2453.732,36.1642
2023-11-07T09:51:49,2420,42.8014,5.9826,13.3061,4.35300,2453.695,36.1673
2023-11-07T09:54:49,2420,42.8014,5.9826,13.3052,4.35255,2453.717,36.1640
2023-11-07T09:57:49,2420,42.8014,5.9826,13.3076,4.35283,2453.672,36.1643
2023-11-07T10:00:49,2420,42.8014,5.9826,13.3034,4.35257,2453.725,36.1658
2023-11-07T10:03:49,2420,42.8014,5.9826,13.3090,4.35208,2453.740,36.1561
2023-11-07T10:06:49,2420,42.8014,5.9826,13.3069,4.35307,2453.717,36.1673
2023-11-07T10:09:49,2420,42.8014,5.9826,13.3011,4.35230,2453.717,36.1654
2023-11-07T10:12:49,2420,42.8014,5.9826,13.3330,4.35267,2453.717,36.1393
2023-11-07T10:15:49,2420,42.8014,5.9826,13.3141,4.35263,2453.754,36.1563
2023-11-07T10:18:49,2420,42.8014,5.9826,13.3104,4.35437,2453.754,36.1762
2023-11-07T10:21:49,2420,42.8014,5.9826,13.3044,4.35333,2453.695,36.1719
2023-11-07T10:24:49,2420,42.8014,5.9826,13.2998,4.35256,2453.717,36.1691
2023-11-07T10:27:49,2420,42.8014,5.9826,13.3005,4.35244,2453.740,36.1673
2023-11-07T10:30:49,2420,42.8014,5.9826,13.2998,4.35217,2453.740,36.1654
2023-11-07T10:33:50,2420,42.8014,5.9826,13.2996,4.35284,2453.717,36.1720
2023-11-07T10:36:49,2420,42.8014,5.9826,13.3003,4.35339,2453.732,36.1764
2023-11-07T10:39:49,2420,42.8014,5.9826,13.2986,4.35173,2453.725,36.1624
2023-11-07T10:42:49,2420,42.8014,5.9826,13.2986,4.35263,2453.740,36.1708
2023-11-07T10:45:49,2420,42.8014,5.9826,13.2984,4.35232,2453.732,36.1682
2023-11-07T10:48:49,2420,42.8014,5.9826,13.2974,4.35312,2453.717,36.1766
2023-11-07T10:51:49,2420,42.8014,5.9826,13.2981,4.35185,2453.717,36.1641
2023-11-07T10:54:49,2420,42.8014,5.9826,13.2978,4.35211,2453.740,36.1668
2023-11-07T10:57:49,2420,42.8014,5.9826,13.2973,4.35146,2453.740,36.1611
2023-11-07T11:00:49,2420,42.8014,5.9826,13.2977,4.35172,2453.762,36.1632
2023-11-07T11:03:49,2420,42.8014,5.9826,13.2987,4.35172,2453.740,36.1623
2023-11-07T11:06:49,2420,42.8014,5.9826,13.2977,4.35229,2453.740,36.1685
2023-11-07T11:09:49,2420,42.8014,5.9826,13.2973,4.35307,2453.762,36.1761
2023-11-07T11:12:49,2420,42.8014,5.9826,13.2968,4.35163,2453.762,36.1631
2023-11-07T11:15:49,2420,42.8014,5.9826,13.2971,4.35237,2453.762,36.1698
2023-11-07T11:18:49,2420,42.8014,5.9826,13.2967,4.35285,2453.762,36.1747
2023-11-07T11:21:49,2420,42.8014,5.9826,13.2975,4.35248,2453.762,36.1705
2023-11-07T11:24:49,2420,42.8014,5.9826,13.2978,4.35154,2453.740,36.1614
2023-11-07T11:27:49,2420,42.8014,5.9826,13.2973,4.35200,2453.762,36.1661
2023-11-07T11:30:49,2420,42.8014,5.9826,13.2979,4.35138,2453.762,36.1597
2023-11-07T11:33:49,2420,42.8014,5.9826,13.2975,4.35183,2453.762,36.1644
2023-11-07T11:36:49,2420,42.8014,5.9826,13.2975,4.35253,2453.740,36.1710
2023-11-07T11:39:49,2420,42.8014,5.9826,13.2985,4.35099,2453.725,36.1556
2023-11-07T11:42:49,2420,42.8014,5.9826,13.2978,4.35242,2453.740,36.1697
2023-11-07T11:45:49,2420,42.8014,5.9826,13.2971,4.35206,2453.740,36.1669
2023-11-07T11:48:49,2420,42.8014,5.9826,13.2982,4.35107,2453.740,36.1567
2023-11-07T11:51:49,2420,42.8014,5.9826,13.2969,4.35042,2453.740,36.1517
2023-11-07T11:54:49,2420,42.8014,5.9826,13.2970,4.35214,2453.762,36.1677
2023-11-07T11:57:49,2420,42.8014,5.9826,13.2968,4.35013,2453.740,36.1492
2023-11-07T12:00:49,2420,42.8014,5.9826,13.2968,4.35136,2453.762,36.1606
2023-11-07T12:03:49,2420,42.8014,5.9826,13.2977,4.35237,2453.748,36.1693
2023-11-07T12:06:49,2420,42.8014,5.9826,13.2975,4.35040,2453.770,36.1511
2023-11-07T12:09:49,2420,42.8014,5.9826,13.2973,4.35210,2453.785,36.1671
2023-11-07T12:12:49,2420,42.8014,5.9826,13.2975,4.35024,2453.770,36.1496
2023-11-07T12:15:49,2420,42.8014,5.9826,13.2969,4.35202,2453.762,36.1667
2023-11-07T12:18:49,2420,42.8014,5.9826,13.2970,4.35052,2453.762,36.1526
2023-11-07T12:21:49,2420,42.8014,5.9826,13.2971,4.35127,2453.770,36.1595
2023-11-07T12:24:49,2420,42.8014,5.9826,13.2974,4.35076,2453.785,36.1545
2023-11-07T12:27:49,2420,42.8014,5.9826,13.2968,4.35223,2453.785,36.1688
2023-11-07T12:30:50,2420,42.8014,5.9826,13.2974,4.34985,2453.785,36.1459
2023-11-07T12:33:49,2420,42.8014,5.9826,13.2982,4.34938,2453.785,36.1409
2023-11-07T12:36:49,2420,42.8014,5.9826,13.2973,4.35141,2453.762,36.1606
2023-11-07T12:39:49,2420,42.8014,5.9826,13.2972,4.35070,2453.762,36.1541
2023-11-07T12:42:49,2420,42.8014,5.9826,13.2971,4.35082,2453.785,36.1553
2023-11-07T12:45:49,2420,42.8014,5.9826,13.2978,4.35153,2453.785,36.1613
2023-11-07T12:48:49,2420,42.8014,5.9826,13.2989,4.35101,2453.800,36.1554
2023-11-07T12:51:49,2420,42.8014,5.9826,13.2972,4.35133,2453.740,36.1600
2023-11-07T12:54:49,2420,42.8014,5.9826,13.2971,4.35073,2453.785,36.1545
2023-11-07T12:57:50,2420,42.8014,5.9826,13.2969,4.35112,2453.807,36.1583
2023-11-07T13:00:49,2420,42.8014,5.9826,13.2973,4.35184,2453.807,36.1646
2023-11-07T13:03:49,2420,42.8014,5.9826,13.2970,4.34986,2453.785,36.1464
2023-11-07T13:06:49,2420,42.8014,5.9826,13.2969,4.35111,2453.793,36.1582
2023-11-07T13:09:49,2420,42.8014,5.9826,13.2974,4.35031,2453.807,36.1503
2023-11-07T13:12:49,2420,42.8014,5.9826,13.2973,4.35145,2453.815,36.1610
2023-11-07T13:15:49,2420,42.8014,5.9826,13.2973,4.35219,2453.785,36.1680
2023-11-07T13:18:49,2420,42.8014,5.9826,13.2968,4.35113,2453.807,36.1585
2023-11-07T13:21:49,2420,42.8014,5.9826,13.2970,4.35031,2453.807,36.1506
2023-11-07T13:24:49,2420,42.8014,5.9826,13.2971,4.35005,2453.807,36.1481
2023-11-07T13:27:49,2420,42.8014,5.9826,13.2970,4.35110,2453.785,36.1581
2023-11-07T13:30:49,2420,42.8014,5.9826,13.2972,4.35043,2453.807,36.1516
2023-11-07T13:33:49,2420,42.8014,5.9826,13.2970,4.35005,2453.830,36.1482
2023-11-07T13:36:49,2420,42.8014,5.9826,13.2975,4.35068,2453.785,36.1536
2023-11-07T13:39:49,2420,42.8014,5.9826,13.2970,4.35064,2453.770,36.1538
2023-11-07T13:42:49,2420,42.8014,5.9826,13.2970,4.35130,2453.793,36.1598
2023-11-07T13:45:49,2420,42.8014,5.9826,13.2968,4.35047,2453.785,36.1522
2023-11-07T13:48:49,2420,42.8014,5.9826,13.2974,4.35135,2453.822,36.1600
2023-11-07T13:51:49,2420,42.8014,5.9826,13.2975,4.35174,2453.807,36.1636
2023-11-07T13:54:49,2420,42.8014,5.9826,13.2970,4.35034,2453.807,36.1509
2023-11-07T13:57:49,2420,42.8014,5.9826,13.2973,4.34932,2453.807,36.1411
2023-11-07T14:00:49,2420,42.8014,5.9826,13.2972,4.35167,2453.830,36.1632
2023-11-07T14:03:49,2420,42.8014,5.9826,13.2973,4.35027,2453.807,36.1500
2023-11-07T14:06:49,2420,42.8014,5.9826,13.2970,4.34932,2453.807,36.1413
2023-11-07T14:09:49,2420,42.8014,5.9826,13.2971,4.34891,2453.807,36.1374
2023-11-07T14:12:49,2420,42.8014,5.9826,13.2973,4.34940,2453.830,36.1418
2023-11-07T14:15:49,2420,42.8014,5.9826,13.2973,4.34896,2453.830,36.1377
2023-11-07T14:18:49,2420,42.8014,5.9826,13.2973,4.35120,2453.830,36.1586
2023-11-07T14:21:49,2420,42.8014,5.9826,13.2973,4.35007,2453.807,36.1481
2023-11-07T14:24:49,2420,42.8014,5.9826,13.2966,4.34937,2453.830,36.1422
2023-11-07T14:27:49,2420,42.8014,5.9826,13.2972,4.35132,2453.815,36.1599
2023-11-07T14:30:49,2420,42.8014,5.9826,13.2970,4.35086,2453.830,36.1557
2023-11-07T14:33:49,2420,42.8014,5.9826,13.2974,4.35110,2453.785,36.1576
2023-11-07T14:36:49,2420,42.8014,5.9826,13.2969,4.34972,2453.830,36.1452
2023-11-07T14:39:49,2420,42.8014,5.9826,13.2970,4.35071,2453.830,36.1543
2023-11-07T14:42:49,2420,42.8014,5.9826,13.2975,4.35089,2453.807,36.1556
2023-11-07T14:45:49,2420,42.8014,5.9826,13.2969,4.34984,2453.807,36.1463
2023-11-07T14:48:49,2420,42.8014,5.9826,13.2972,4.34918,2453.807,36.1399
2023-11-07T14:51:49,2420,42.8014,5.9826,13.2974,4.34967,2453.830,36.1443
2023-11-07T14:54:49,2420,42.8014,5.9826,13.2973,4.35074,2453.815,36.1544
2023-11-07T14:57:49,2420,42.8014,5.9826,13.2968,4.34956,2453.762,36.1439
2023-11-07T15:00:49,2420,42.8014,5.9826,13.2971,4.35003,2453.762,36.1479
2023-11-07T15:03:49,2420,42.8014,5.9826,13.2971,4.34982,2453.748,36.1460
2023-11-07T15:06:49,2420,42.8014,5.9826,13.2972,4.35036,2453.785,36.1509
2023-11-07T15:09:49,2420,42.8014,5.9826,13.2973,4.34840,2453.807,36.1325
2023-11-07T15:12:49,2420,42.8014,5.9826,13.2970,4.35098,2453.785,36.1569
2023-11-07T15:15:49,2420,42.8014,5.9826,13.2971,4.34878,2453.785,36.1363
2023-11-07T15:18:49,2420,42.8014,5.9826,13.2970,4.35033,2453.815,36.1508
2023-11-07T15:21:49,2420,42.8014,5.9826,13.2973,4.34847,2453.807,36.1332
2023-11-07T15:24:49,2420,42.8014,5.9826,13.2971,4.35463,2453.785,36.1909
2023-11-07T15:27:49,2420,42.8014,5.9826,13.2985,4.35465,2453.785,36.1898
2023-11-07T15:30:50,2420,42.8014,5.9826,13.2986,4.35460,2453.785,36.1893
2023-11-07T15:33:49,2420,42.8014,5.9826,13.2970,4.35447,2453.785,36.1895
2023-11-07T15:36:49,2420,42.8014,5.9826,13.2970,4.35414,2453.830,36.1864
2023-11-07T15:39:49,2420,42.8014,5.9826,13.2970,4.35365,2453.807,36.1818
2023-11-07T15:42:49,2420,42.8014,5.9826,13.2973,4.35402,2453.785,36.1851
2023-11-07T15:45:49,2420,42.8014,5.9826,13.2971,4.35372,2453.807,36.1824
2023-11-07T15:48:49,2420,42.8014,5.9826,13.2979,4.35375,2453.770,36.1820
2023-11-07T15:51:49,2420,42.8014,5.9826,13.2972,4.35320,2453.785,36.1775
2023-11-07T15:54:49,2420,42.8014,5.9826,13.2975,4.35361,2453.785,36.1811
2023-11-07T15:57:49,2420,42.8014,5.9826,13.2979,4.35398,2453.800,36.1840
2023-11-07T16:00:50,2420,42.8014,5.9826,13.2970,4.35416,2453.807,36.1866
2023-11-07T16:03:49,2420,42.8014,5.9826,13.2970,4.35415,2453.793,36.1865